FW1957 Weather Reports


Display with metric or nautical units.
time (UTC)temp
F
wind
direction
speed
MPH
gust
MPH
rain 1hr
in
rain 24hr
in
rain mn
in
humidity
%
barometer
mb
20260509151208 61 227 7.0 14.0 0.00 0.00 0.00 79 1015.9
20260509150715 61 227 8.0 16.0 0.00 0.00 0.00 79 1015.9
20260509150211 61 225 10.0 16.0 0.00 0.00 0.00 78 1015.9
20260509145713 61 223 10.0 16.0 0.00 0.00 0.00 76 1015.9
20260509145206 61 237 10.0 15.0 0.00 0.00 0.00 76 1015.9
20260509144721 61 236 10.0 15.0 0.00 0.00 0.00 75 1015.9
20260509144210 61 241 10.0 15.0 0.00 0.00 0.00 74 1015.9
20260509143221 62 236 8.0 14.0 0.00 0.00 0.00 72 1015.9
20260509142709 63 242 8.0 15.0 0.00 0.00 0.00 71 1015.9
20260509142216 63 244 8.0 15.0 0.00 0.00 0.00 70 1016.0
20260509141710 64 221 8.0 13.0 0.00 0.00 0.00 69 1016.0
20260509141208 64 223 6.0 13.0 0.00 0.00 0.00 67 1016.0
20260509135713 65 240 3.0 6.0 0.00 0.00 0.00 61 1016.1
20260509135213 65 238 2.0 3.0 0.00 0.00 0.00 59 1016.1
20260509134717 65 242 1.0 3.0 0.00 0.00 0.00 58 1016.1
20260509134214 65 323 1.0 3.0 0.00 0.00 0.00 57 1016.1
20260509133708 65 323 2.0 6.0 0.00 0.00 0.00 57 1016.1
20260509132718 65 63 2.0 6.0 0.00 0.00 0.00 57 1016.1
20260509132219 65 84 2.0 4.0 0.00 0.00 0.00 57 1016.2
20260509131709 65 64 2.0 4.0 0.00 0.00 0.00 56 1016.2
20260509131209 65 36 2.0 7.0 0.00 0.00 0.00 56 1016.2
20260509130706 65 63 3.0 7.0 0.00 0.00 0.00 56 1016.2
20260509130205 65 80 3.0 7.0 0.00 0.00 0.00 56 1016.2
20260509125716 65 78 3.0 8.0 0.00 0.00 0.00 57 1016.2
20260509125210 65 30 4.0 8.0 0.00 0.00 0.00 57 1016.1
20260509124706 65 53 4.0 11.0 0.00 0.00 0.00 57 1016.0
20260509124221 65 39 5.0 12.0 0.00 0.00 0.00 57 1015.9
20260509123209 66 80 6.0 12.0 0.00 0.00 0.00 56 1015.9
20260509122719 66 65 5.0 10.0 0.00 0.00 0.00 56 1015.9
20260509122211 66 51 5.0 10.0 0.00 0.00 0.00 56 1016.0
20260509121705 66 59 4.0 10.0 0.00 0.00 0.00 56 1016.0
20260509121210 66 24 3.0 8.0 0.00 0.00 0.00 55 1016.1
20260509120717 66 70 3.0 9.0 0.00 0.00 0.00 55 1016.1
20260509120219 67 0 3.0 10.0 0.00 0.00 0.00 53 1016.1
20260509115714 67 35 4.0 11.0 0.00 0.00 0.00 53 1016.2
20260509115215 68 56 6.0 11.0 0.00 0.00 0.00 53 1016.1
20260509114714 68 69 5.0 11.0 0.00 0.00 0.00 52 1016.0
20260509114210 69 26 3.0 12.0 0.00 0.00 0.00 53 1016.0
20260509113714 69 77 5.0 12.0 0.00 0.00 0.00 55 1016.1
20260509113214 68 88 6.0 12.0 0.00 0.00 0.00 55 1016.1
20260509112711 68 80 5.0 11.0 0.00 0.00 0.00 56 1016.0
20260509112207 68 36 4.0 11.0 0.00 0.00 0.00 54 1016.1
20260509111713 68 10 3.0 10.0 0.00 0.00 0.00 56 1016.1
20260509110711 67 322 4.0 12.0 0.00 0.00 0.00 54 1016.2
20260509110212 67 54 6.0 12.0 0.00 0.00 0.00 56 1016.3
20260509105707 67 57 5.0 14.0 0.00 0.00 0.00 55 1016.3
20260509104718 66 65 5.0 14.0 0.00 0.00 0.00 57 1016.4
20260509104207 66 30 6.0 12.0 0.00 0.00 0.00 57 1016.4
20260509103209 66 62 4.0 10.0 0.00 0.00 0.00 57 1016.6
20260509102710 66 104 5.0 10.0 0.00 0.00 0.00 58 1016.6
20260509102217 66 72 5.0 11.0 0.00 0.00 0.00 58 1016.7
20260509101707 65 137 6.0 14.0 0.00 0.00 0.00 60 1016.7
20260509100712 65 50 6.0 14.0 0.00 0.00 0.00 59 1016.7
20260509100210 65 71 4.0 10.0 0.00 0.00 0.00 59 1016.8
20260509095206 65 86 3.0 9.0 0.00 0.00 0.00 61 1016.9
20260509094707 64 75 5.0 9.0 0.00 0.00 0.00 61 1016.9
20260509093715 64 93 4.0 12.0 0.00 0.00 0.00 61 1017.0
20260509092708 64 85 7.0 12.0 0.00 0.00 0.00 61 1017.0
20260509092211 63 74 6.0 11.0 0.00 0.00 0.00 62 1017.0
20260509091705 63 30 6.0 12.0 0.00 0.00 0.00 62 1017.0
20260509091213 63 111 7.0 12.0 0.00 0.00 0.00 61 1017.0
20260509090713 63 14 7.0 12.0 0.00 0.00 0.00 59 1017.0
20260509090211 63 74 6.0 14.0 0.00 0.00 0.00 61 1017.0
20260509085710 63 84 6.0 14.0 0.00 0.00 0.00 62 1017.0
20260509085209 62 18 6.0 14.0 0.00 0.00 0.00 63 1017.0
20260509084706 62 90 5.0 12.0 0.00 0.00 0.00 63 1017.1
20260509083213 62 61 5.0 9.0 0.00 0.00 0.00 66 1017.4
20260509082708 62 18 5.0 11.0 0.00 0.00 0.00 66 1017.4
20260509082215 62 56 5.0 11.0 0.00 0.00 0.00 65 1017.4
20260509081720 62 14 6.0 10.0 0.00 0.00 0.00 65 1017.4
20260509081219 62 347 5.0 10.0 0.00 0.00 0.00 67 1017.3
20260509080718 62 30 5.0 12.0 0.00 0.00 0.00 69 1017.3
20260509075717 61 67 5.0 12.0 0.00 0.00 0.00 70 1017.3
20260509074715 61 44 5.0 9.0 0.00 0.00 0.00 70 1017.3
20260509074208 61 15 4.0 9.0 0.00 0.00 0.00 71 1017.3
20260509073716 61 36 3.0 9.0 0.00 0.00 0.00 70 1017.3
20260509073210 60 14 4.0 9.0 0.00 0.00 0.00 72 1017.3
20260509072705 60 19 4.0 9.0 0.00 0.00 0.00 72 1017.3
20260509072215 60 36 4.0 9.0 0.00 0.00 0.00 74 1017.3
20260509071710 60 348 4.0 6.0 0.00 0.00 0.00 75 1017.3
20260509071215 59 76 3.0 8.0 0.00 0.00 0.00 75 1017.3
20260509070715 59 0 4.0 8.0 0.00 0.00 0.00 75 1017.2
20260509070211 58 41 4.0 6.0 0.00 0.00 0.00 76 1017.2
20260509065720 58 78 3.0 6.0 0.00 0.00 0.00 77 1017.1
20260509065205 58 30 3.0 6.0 0.00 0.00 0.00 78 1017.2
20260509064711 57 55 3.0 6.0 0.00 0.00 0.00 80 1017.1
20260509063716 56 26 2.0 4.0 0.00 0.00 0.00 84 1017.2
20260509062705 54 335 2.0 5.0 0.00 0.01 0.00 87 1017.2
20260509062214 53 331 2.0 4.0 0.00 0.01 0.00 88 1017.1
20260509061717 52 15 2.0 4.0 0.00 0.01 0.00 90 1017.1
20260509061211 52 300 2.0 4.0 0.00 0.01 0.00 91 1017.1
20260509060714 51 294 2.0 3.0 0.00 0.01 0.00 91 1017.1
20260509060206 51 253 2.0 3.0 0.00 0.01 0.00 91 1017.0
20260509055218 50 233 0.0 2.0 0.00 0.01 0.00 91 1017.0
20260509054714 50 254 0.0 3.0 0.00 0.01 0.00 91 1016.9
20260509054205 50 256 1.0 3.0 0.00 0.01 0.00 91 1016.9
20260509053713 49 256 1.0 3.0 0.00 0.01 0.00 91 1016.9
20260509053212 49 265 2.0 3.0 0.00 0.01 0.00 91 1016.9
20260509052711 49 261 1.0 3.0 0.00 0.01 0.00 90 1016.9
20260509052216 49 267 0.0 0.0 0.00 0.01 0.00 90 1016.8
20260509051214 49 279 0.0 0.0 0.00 0.01 0.00 90 1016.8
20260509050717 48 279 0.0 0.0 0.00 0.01 0.00 90 1016.7
20260509050212 48 279 0.0 0.0 0.00 0.01 0.00 90 1016.7
20260509044707 48 279 0.0 0.0 0.00 0.01 0.00 89 1016.6
20260509044207 48 279 0.0 0.0 0.00 0.01 0.00 89 1016.5
20260509043719 48 279 0.0 0.0 0.00 0.01 0.00 89 1016.5
20260509043206 48 279 0.0 0.0 0.00 0.01 0.00 88 1016.5
20260509042709 47 279 0.0 0.0 0.00 0.01 0.00 88 1016.5
20260509042213 47 279 0.0 2.0 0.00 0.01 0.00 88 1016.4
20260509041710 47 279 0.0 2.0 0.00 0.01 0.00 88 1016.4
20260509041207 47 279 1.0 2.0 0.00 0.01 0.00 88 1016.3
20260509040718 47 279 1.0 2.0 0.00 0.01 0.00 87 1016.3
20260509035717 47 279 0.0 0.0 0.00 0.01 0.00 87 1016.3
20260509035211 47 279 0.0 1.0 0.00 0.01 0.00 87 1016.3
20260509034707 48 279 0.0 2.0 0.00 0.01 0.00 87 1016.3
20260509034217 48 279 0.0 3.0 0.00 0.01 0.00 87 1016.2
20260509033215 48 279 2.0 3.0 0.00 0.01 0.00 86 1016.2
20260509032218 48 267 2.0 3.0 0.00 0.01 0.00 86 1016.3
20260509030708 49 268 0.0 0.0 0.00 0.01 0.00 85 1016.3
20260509030212 49 322 0.0 1.0 0.00 0.01 0.00 85 1016.2
20260509025709 49 322 0.0 1.0 0.00 0.01 0.00 85 1016.2
20260509025206 49 322 0.0 2.0 0.00 0.01 0.00 85 1016.2
20260509024707 49 322 1.0 2.0 0.00 0.01 0.00 85 1016.3
20260509024211 49 322 1.0 2.0 0.00 0.01 0.00 85 1016.2
20260509023715 50 322 1.0 2.0 0.00 0.01 0.00 85 1016.2
20260509023215 50 322 0.0 1.0 0.00 0.01 0.00 85 1016.2
20260509022712 50 309 0.0 2.0 0.00 0.01 0.00 85 1016.2
20260509022216 50 309 1.0 2.0 0.00 0.01 0.00 85 1016.2
20260509021712 50 309 0.0 2.0 0.00 0.01 0.00 85 1016.2
20260509021215 50 309 0.0 0.0 0.00 0.01 0.00 85 1016.1
20260509020720 50 325 0.0 0.0 0.00 0.01 0.00 85 1016.2
20260509020219 50 325 0.0 0.0 0.00 0.01 0.00 85 1016.2
20260509015712 51 325 0.0 1.0 0.00 0.01 0.00 85 1016.1
20260509015209 51 325 0.0 4.0 0.00 0.01 0.00 85 1016.1
20260509014215 51 336 0.0 4.0 0.00 0.01 0.00 84 1016.2
20260509013712 51 351 1.0 3.0 0.00 0.01 0.00 84 1016.1
20260509013207 51 351 1.0 3.0 0.00 0.01 0.00 84 1016.1
20260509012707 51 351 2.0 3.0 0.00 0.01 0.00 84 1016.1
20260509012217 51 355 2.0 4.0 0.00 0.01 0.00 84 1016.1
20260509011714 51 0 2.0 4.0 0.00 0.01 0.00 84 1016.1
20260509011218 52 355 2.0 4.0 0.00 0.01 0.00 84 1016.1
20260509010216 52 355 2.0 4.0 0.00 0.01 0.00 83 1016.1
20260509004718 52 0 1.0 3.0 0.00 0.01 0.00 83 1016.0
20260509003216 53 333 2.0 4.0 0.00 0.01 0.00 83 1016.0
20260509002717 53 313 3.0 4.0 0.00 0.01 0.00 83 1016.0
20260509002208 53 333 2.0 4.0 0.00 0.01 0.00 83 1016.0
20260509001708 53 339 2.0 3.0 0.00 0.01 0.00 82 1016.0
20260509001219 53 332 2.0 3.0 0.00 0.01 0.00 82 1016.1
20260509000707 53 343 1.0 3.0 0.00 0.01 0.00 82 1016.0
20260508234719 53 305 3.0 5.0 0.00 0.01 0.01 82 1016.1
20260508234210 53 333 3.0 5.0 0.00 0.01 0.01 82 1016.1
20260508233715 53 331 2.0 4.0 0.00 0.01 0.01 82 1016.0
20260508233210 53 340 2.0 4.0 0.00 0.01 0.01 82 1016.0
20260508232706 54 343 3.0 4.0 0.00 0.01 0.01 82 1016.0
20260508232207 54 338 2.0 3.0 0.00 0.01 0.01 82 1016.0
20260508231707 54 336 2.0 3.0 0.00 0.01 0.01 82 1016.1
20260508231301 54 329 2.0 3.0 0.00 0.01 0.01 82 1016.1
20260508230244 54 317 1.0 4.0 0.00 0.01 0.01 82 1016.1
20260508225708 54 321 1.0 4.0 0.00 0.01 0.01 82 1016.1
20260508225208 54 337 2.0 4.0 0.00 0.01 0.01 82 1016.1
20260508224708 54 332 2.0 3.0 0.00 0.01 0.01 82 1016.1
20260508224206 54 333 2.0 4.0 0.00 0.01 0.01 83 1016.1
20260508223711 54 322 2.0 4.0 0.00 0.01 0.01 83 1016.1
20260508223205 54 328 2.0 4.0 0.00 0.01 0.01 83 1016.1
20260508222714 54 345 2.0 4.0 0.00 0.01 0.01 83 1016.1
20260508222213 54 337 2.0 4.0 0.00 0.01 0.01 84 1016.1
20260508221718 54 348 2.0 4.0 0.00 0.01 0.01 84 1016.1
20260508221216 54 338 2.0 5.0 0.00 0.01 0.01 85 1016.1
20260508220705 54 0 2.0 5.0 0.00 0.01 0.01 85 1016.1
20260508215713 54 339 2.0 5.0 0.00 0.01 0.01 85 1016.1
20260508214211 55 355 3.0 8.0 0.00 0.01 0.01 85 1016.1
20260508213713 55 336 3.0 8.0 0.00 0.01 0.01 85 1016.0
20260508213209 55 12 3.0 6.0 0.00 0.01 0.01 85 1016.0
20260508212709 55 299 3.0 4.0 0.00 0.01 0.01 85 1015.8
20260508212206 55 277 2.0 4.0 0.00 0.01 0.01 84 1015.8
20260508211719 55 270 2.0 5.0 0.00 0.01 0.01 84 1015.8
20260508211213 55 292 2.0 6.0 0.00 0.01 0.01 84 1015.8
20260508210709 55 271 3.0 6.0 0.00 0.01 0.01 84 1015.7
20260508210211 56 251 3.0 5.0 0.00 0.01 0.01 84 1015.7
20260508205720 56 266 3.0 5.0 0.00 0.01 0.01 84 1015.7
20260508205214 56 252 4.0 5.0 0.00 0.01 0.01 84 1015.7
20260508204212 56 254 3.0 4.0 0.00 0.01 0.01 83 1015.7
20260508203709 57 251 3.0 4.0 0.00 0.01 0.01 83 1015.6
20260508203212 57 232 2.0 6.0 0.00 0.01 0.01 83 1015.6
20260508202708 57 237 3.0 6.0 0.00 0.01 0.01 83 1015.6
20260508202219 57 223 3.0 8.0 0.00 0.01 0.01 83 1015.6
20260508201712 57 220 3.0 8.0 0.00 0.01 0.01 83 1015.5
20260508201206 57 234 4.0 8.0 0.00 0.02 0.01 82 1015.5
20260508200718 58 244 5.0 7.0 0.00 0.02 0.01 82 1015.4
20260508200208 58 246 4.0 6.0 0.00 0.02 0.01 81 1015.3
20260508195717 58 232 2.0 4.0 0.00 0.02 0.01 81 1015.3
20260508195206 59 241 1.0 2.0 0.00 0.02 0.01 80 1015.3
20260508193709 59 248 3.0 4.0 0.00 0.02 0.01 80 1015.2
20260508193207 59 235 2.0 3.0 0.00 0.02 0.01 79 1015.1
20260508192718 60 219 1.0 3.0 0.00 0.02 0.01 79 1015.0
20260508192212 60 219 2.0 3.0 0.00 0.02 0.01 79 1015.0
20260508191711 60 231 2.0 3.0 0.00 0.02 0.01 78 1014.9
20260508191217 60 231 2.0 4.0 0.00 0.03 0.01 78 1014.9
20260508190717 60 231 2.0 4.0 0.00 0.04 0.01 77 1014.8
20260508190208 60 230 3.0 5.0 0.00 0.04 0.01 77 1014.8
20260508185717 60 219 3.0 7.0 0.00 0.06 0.01 77 1014.8
20260508185213 60 218 4.0 7.0 0.00 0.06 0.01 76 1014.8
20260508184714 60 209 3.0 5.0 0.00 0.07 0.01 76 1014.6
20260508183710 61 172 1.0 3.0 0.00 0.09 0.01 76 1014.5
20260508183217 61 219 2.0 5.0 0.00 0.10 0.01 75 1014.4
20260508182719 61 196 2.0 5.0 0.00 0.10 0.01 74 1014.4
20260508182217 62 203 2.0 6.0 0.00 0.11 0.01 74 1014.3
20260508181708 62 217 3.0 6.0 0.00 0.13 0.01 73 1014.3
20260508181209 62 219 3.0 6.0 0.00 0.14 0.01 72 1014.2
20260508180705 62 220 4.0 6.0 0.00 0.15 0.01 71 1014.1
20260508180205 62 217 3.0 7.0 0.00 0.16 0.01 71 1014.0
20260508175716 62 219 2.0 7.0 0.00 0.17 0.01 71 1014.0
20260508175218 62 236 3.0 10.0 0.00 0.18 0.01 70 1013.9
20260508174708 62 224 4.0 10.0 0.00 0.20 0.01 69 1013.9
20260508174215 63 204 6.0 12.0 0.00 0.20 0.01 68 1013.9
20260508173708 63 211 7.0 12.0 0.00 0.22 0.01 68 1013.9
20260508173205 63 219 6.0 12.0 0.00 0.24 0.01 67 1013.9
20260508172716 64 220 5.0 10.0 0.00 0.26 0.01 67 1013.7
20260508172210 65 142 4.0 8.0 0.00 0.28 0.01 65 1013.6
20260508171213 67 211 2.0 4.0 0.00 0.32 0.01 62 1013.6
20260508170707 67 167 2.0 4.0 0.00 0.34 0.01 58 1013.6
20260508170208 67 139 2.0 6.0 0.00 0.35 0.01 57 1013.5
20260508165719 67 135 2.0 7.0 0.00 0.36 0.01 57 1013.6
20260508165218 67 108 3.0 7.0 0.00 0.38 0.01 57 1013.6
20260508164709 68 104 4.0 7.0 0.00 0.39 0.01 56 1013.6
20260508164217 68 117 3.0 7.0 0.00 0.39 0.01 56 1013.6
20260508163707 68 107 3.0 7.0 0.00 0.40 0.01 56 1013.6
20260508163209 68 133 3.0 9.0 0.00 0.41 0.01 54 1013.6
20260508162713 68 127 3.0 9.0 0.00 0.41 0.01 55 1013.6
20260508162219 69 95 4.0 10.0 0.00 0.42 0.01 54 1013.7
20260508161713 69 142 4.0 10.0 0.00 0.43 0.01 54 1013.6
20260508161208 69 140 4.0 10.0 0.00 0.43 0.01 54 1013.6
20260508160714 69 138 4.0 8.0 0.00 0.43 0.01 53 1013.6
20260508160207 70 80 3.0 10.0 0.00 0.44 0.01 53 1013.5
20260508155706 70 94 4.0 10.0 0.00 0.45 0.01 53 1013.5
20260508155210 70 121 5.0 10.0 0.00 0.46 0.01 53 1013.5
20260508154207 69 55 4.0 11.0 0.00 0.48 0.01 52 1013.4
20260508153711 69 85 5.0 11.0 0.00 0.49 0.01 53 1013.3
20260508153207 69 87 4.0 9.0 0.00 0.50 0.01 54 1013.3
20260508152708 69 156 3.0 10.0 0.00 0.50 0.01 55 1013.3
20260508152211 69 67 4.0 10.0 0.00 0.51 0.01 55 1013.3
20260508151714 68 90 4.0 10.0 0.00 0.54 0.01 55 1013.4